When you browse on this site, cookies collect data to enhance your experience and personalize the content and advertising you see.
Visit our Privacy Policy to learn more. By continuing to use the site, you agree to this use of cookies and data.
  • In Romania
  • List of Countries
  • For 7 days
  • Water Temperature
  • Satellite Maps
  • Weather Map
  • Weather Widgets
  • user-avatar
    Login

    Hourly Weather Leipzig

    Today, 24 March, Sunday

    Time Temperature Precipitation Wind Pressure Humidity
    00:00 +7°C° 0 mm 2 mps 761 mmHg 93%
    01:00 +7°C° 0 mm 2 mps 761 mmHg 95%
    02:00 +7°C° 0 mm 2 mps 760 mmHg 93%
    03:00 +7°C° 0 mm 2 mps 760 mmHg 91%
    04:00 +7°C° 0 mm 2 mps 760 mmHg 89%
    05:00 +7°C° 0.1 mm 2 mps 760 mmHg 88%
    06:00 +7°C° 0.1 mm 2 mps 760 mmHg 87%
    07:00 +7°C° 0.1 mm 2 mps 760 mmHg 86%
    08:00 +7°C° 0 mm 2 mps 759 mmHg 83%
    09:00 +8°C° 0 mm 2 mps 759 mmHg 80%
    10:00 +8°C° 0 mm 2 mps 759 mmHg 76%
    11:00 +9°C° 0 mm 2 mps 759 mmHg 72%
    12:00 +9°C° 0 mm 2 mps 758 mmHg 69%
    13:00 +10°C° 0 mm 2 mps 758 mmHg 65%
    14:00 +10°C° 0 mm 2 mps 757 mmHg 65%
    15:00 +10°C° 0 mm 2 mps 757 mmHg 64%
    16:00 +10°C° 0 mm 2 mps 757 mmHg 64%
    17:00 +10°C° 0 mm 2 mps 756 mmHg 66%
    18:00 +9°C° 0 mm 2 mps 756 mmHg 69%
    19:00 +8°C° 0 mm 2 mps 756 mmHg 72%
    20:00 +7°C° 0 mm 2 mps 756 mmHg 72%
    21:00 +6°C° 0 mm 2 mps 756 mmHg 72%
    22:00 +5°C° 0 mm 2 mps 755 mmHg 72%
    23:00 +5°C° 0 mm 2 mps 755 mmHg 71%

    Tomorrow, 25 March, Monday

    Time Temperature Precipitation Wind Pressure Humidity
    00:00 +4°C° 0 mm 2 mps 755 mmHg 71%
    01:00 +4°C° 0 mm 2 mps 755 mmHg 71%
    02:00 +2°C° 0 mm 3 mps 754 mmHg 72%
    03:00 +1°C° 0 mm 4 mps 753 mmHg 74%
    04:00 +1°C° 0 mm 4 mps 753 mmHg 75%
    05:00 +1°C° 0 mm 5 mps 752 mmHg 75%
    06:00 +1°C° 0 mm 6 mps 752 mmHg 75%
    07:00 0°C° 0 mm 7 mps 752 mmHg 75%
    08:00 +2°C° 0.3 mm 7 mps 752 mmHg 71%
    09:00 +3°C° 0.3 mm 7 mps 752 mmHg 67%
    10:00 +4°C° 0.3 mm 7 mps 752 mmHg 63%
    11:00 +5°C° 0.3 mm 8 mps 752 mmHg 61%
    12:00 +5°C° 0.3 mm 8 mps 752 mmHg 59%
    13:00 +5°C° 0.3 mm 8 mps 752 mmHg 58%
    14:00 +5°C° 0.4 mm 8 mps 752 mmHg 58%
    15:00 +5°C° 0.4 mm 7 mps 752 mmHg 58%
    16:00 +5°C° 0.4 mm 7 mps 752 mmHg 58%
    17:00 +4°C° 0.3 mm 6 mps 753 mmHg 63%
    18:00 +3°C° 0.3 mm 5 mps 754 mmHg 69%
    19:00 +3°C° 0.3 mm 4 mps 754 mmHg 75%
    20:00 +3°C° 0 mm 4 mps 755 mmHg 78%
    21:00 +1°C° 0 mm 4 mps 756 mmHg 80%
    22:00 +1°C° 0 mm 3 mps 757 mmHg 83%
    23:00 +1°C° 0 mm 3 mps 758 mmHg 86%

    Day after tomorrow, 26 March, Tuesday

    Time Temperature Precipitation Wind Pressure Humidity
    00:00 0°C° 0 mm 3 mps 759 mmHg 89%
    01:00 0°C° 0 mm 3 mps 760 mmHg 92%
    02:00 0°C° 0 mm 3 mps 760 mmHg 93%
    03:00 0°C° 0 mm 3 mps 760 mmHg 94%
    04:00 0°C° 0 mm 3 mps 761 mmHg 95%
    05:00 0°C° 0 mm 3 mps 761 mmHg 94%
    06:00 0°C° 0 mm 3 mps 761 mmHg 93%
    07:00 0°C° 0 mm 3 mps 762 mmHg 92%
    08:00 +2°C° 0 mm 3 mps 762 mmHg 85%
    09:00 +3°C° 0 mm 4 mps 762 mmHg 78%
    10:00 +5°C° 0 mm 4 mps 762 mmHg 71%
    11:00 +6°C° 0 mm 5 mps 762 mmHg 67%
    12:00 +7°C° 0 mm 5 mps 762 mmHg 62%
    13:00 +8°C° 0 mm 5 mps 762 mmHg 57%
    14:00 +8°C° 0 mm 5 mps 761 mmHg 59%
    15:00 +7°C° 0 mm 6 mps 761 mmHg 60%
    16:00 +7°C° 0 mm 6 mps 761 mmHg 62%
    17:00 +6°C° 0 mm 5 mps 761 mmHg 67%
    18:00 +5°C° 0 mm 4 mps 761 mmHg 73%
    19:00 +4°C° 0 mm 3 mps 761 mmHg 78%
    20:00 +3°C° 0 mm 3 mps 761 mmHg 81%
    21:00 +3°C° 0 mm 3 mps 762 mmHg 84%
    22:00 +2°C° 0 mm 3 mps 762 mmHg 87%
    23:00 +2°C° 0 mm 3 mps 762 mmHg 88%

    27 March, Wednesday

    Time Temperature Precipitation Wind Pressure Humidity
    00:00 +2°C° 0 mm 3 mps 762 mmHg 90%
    01:00 +3°C° 0 mm 2 mps 762 mmHg 91%
    02:00 +3°C° 0 mm 2 mps 762 mmHg 92%
    03:00 +2°C° 0 mm 2 mps 762 mmHg 93%
    04:00 +2°C° 0 mm 2 mps 762 mmHg 93%
    05:00 +2°C° 0 mm 2 mps 762 mmHg 92%
    06:00 +3°C° 0 mm 2 mps 762 mmHg 90%
    07:00 +2°C° 0 mm 3 mps 762 mmHg 89%
    08:00 +3°C° 0 mm 3 mps 762 mmHg 84%
    09:00 +5°C° 0 mm 3 mps 762 mmHg 79%
    10:00 +7°C° 0 mm 3 mps 763 mmHg 74%
    11:00 +8°C° 0.1 mm 3 mps 762 mmHg 72%
    12:00 +8°C° 0.1 mm 3 mps 762 mmHg 69%
    13:00 +9°C° 0.1 mm 3 mps 762 mmHg 67%
    14:00 +9°C° 0 mm 3 mps 762 mmHg 67%
    15:00 +9°C° 0 mm 3 mps 762 mmHg 66%
    16:00 +10°C° 0 mm 3 mps 762 mmHg 66%
    17:00 +9°C° 0 mm 3 mps 762 mmHg 70%
    18:00 +8°C° 0 mm 2 mps 762 mmHg 74%
    19:00 +8°C° 0 mm 2 mps 762 mmHg 79%
    20:00 +8°C° 0.1 mm 2 mps 762 mmHg 82%
    21:00 +7°C° 0.1 mm 2 mps 762 mmHg 85%
    22:00 +7°C° 0.1 mm 2 mps 762 mmHg 88%
    23:00 +7°C° 0.1 mm 2 mps 762 mmHg 90%

    28 March, Thursday

    Time Temperature Precipitation Wind Pressure Humidity
    00:00 +7°C° 0.1 mm 2 mps 763 mmHg 91%
    01:00 +7°C° 0.1 mm 2 mps 763 mmHg 92%
    02:00 +7°C° 0.2 mm 2 mps 762 mmHg 93%
    03:00 +7°C° 0.2 mm 2 mps 762 mmHg 94%
    04:00 +7°C° 0.2 mm 2 mps 762 mmHg 95%
    05:00 +7°C° 0.1 mm 2 mps 762 mmHg 95%
    06:00 +7°C° 0.1 mm 2 mps 763 mmHg 95%
    07:00 +7°C° 0.1 mm 2 mps 763 mmHg 95%
    08:00 +7°C° 0 mm 2 mps 763 mmHg 93%
    09:00 +8°C° 0 mm 2 mps 763 mmHg 91%
    10:00 +8°C° 0 mm 2 mps 763 mmHg 88%
    11:00 +9°C° 0 mm 2 mps 763 mmHg 83%
    12:00 +10°C° 0 mm 2 mps 763 mmHg 77%
    13:00 +10°C° 0 mm 2 mps 763 mmHg 71%
    14:00 +12°C° 0 mm 2 mps 763 mmHg 69%
    15:00 +12°C° 0 mm 2 mps 763 mmHg 66%
    16:00 +13°C° 0 mm 2 mps 762 mmHg 63%
    17:00 +11°C° 0 mm 1 mps 763 mmHg 67%
    18:00 +10°C° 0 mm 1 mps 763 mmHg 71%
    19:00 +9°C° 0 mm 1 mps 763 mmHg 75%
    20:00 +9°C° 0 mm 1 mps 763 mmHg 78%
    21:00 +9°C° 0 mm 1 mps 763 mmHg 80%
    22:00 +9°C° 0 mm 1 mps 763 mmHg 82%
    23:00 +9°C° 0 mm 1 mps 763 mmHg 84%

    29 March, Friday

    Time Temperature Precipitation Wind Pressure Humidity
    00:00 +8°C° 0 mm 1 mps 763 mmHg 85%
    01:00 +8°C° 0 mm 1 mps 763 mmHg 87%
    02:00 +8°C° 0 mm 1 mps 763 mmHg 87%
    03:00 +7°C° 0 mm 1 mps 763 mmHg 88%
    04:00 +7°C° 0 mm 1 mps 763 mmHg 89%
    05:00 +7°C° 0 mm 1 mps 763 mmHg 89%
    06:00 +7°C° 0 mm 1 mps 763 mmHg 90%
    07:00 +6°C° 0 mm 0 mps 763 mmHg 90%
    08:00 +8°C° 0 mm 0 mps 763 mmHg 82%
    09:00 +9°C° 0 mm 0 mps 763 mmHg 75%
    10:00 +11°C° 0 mm 0 mps 763 mmHg 67%
    11:00 +13°C° 0 mm 1 mps 763 mmHg 63%
    12:00 +14°C° 0 mm 1 mps 762 mmHg 58%
    13:00 +14°C° 0 mm 1 mps 762 mmHg 54%
    14:00 +14°C° 0 mm 1 mps 762 mmHg 54%
    15:00 +14°C° 0 mm 1 mps 761 mmHg 55%
    16:00 +14°C° 0 mm 1 mps 761 mmHg 55%
    17:00 +13°C° 0 mm 1 mps 761 mmHg 59%
    18:00 +12°C° 0 mm 2 mps 761 mmHg 62%
    19:00 +10°C° 0 mm 2 mps 760 mmHg 65%
    20:00 +9°C° 0 mm 2 mps 760 mmHg 68%
    21:00 +8°C° 0 mm 2 mps 761 mmHg 71%
    22:00 +8°C° 0 mm 2 mps 761 mmHg 74%
    23:00 +7°C° 0 mm 2 mps 760 mmHg 76%
    Show more